Location: Kouchibouguac National Park
(46.8081°N, 64.9088°W)
Time: 14:15:42
(UTC-04:00)

Amateur Radio Satellites - All Passes

Search period start: 22 January 2017 13:45
Search period end: 23 January 2017 13:45
Location: Kouchibouguac National Park, 46.8081°N, 64.9088°W

Satellite Date Start Highest point End Downlink Frequencies (MHz)
Time Altitude Azimuth
BEESAT 22 Jan 13:48:48 13:50:37 12° 88° (E) 13:52:25 436.000
SWISSCUBE 22 Jan 13:50:05 13:52:36 14° 89° (E) 13:55:06 437.505
SPROUT 22 Jan 13:57:28 14:00:46 22° 296° (WNW) 14:04:04 437.525
AO-7 22 Jan 13:58:10 14:06:08 51° 60° (ENE) 14:14:07 29.400- 29.500
UKube-1 22 Jan 14:04:03 14:08:04 38° 292° (WNW) 14:12:03 .
SO-50 22 Jan 14:08:46 14:11:41 16° 29° (NNE) 14:14:34 436.795
DX 1 22 Jan 14:09:39 14:13:17 27° 295° (WNW) 14:16:54 434.975-435.025
Oscar 19 22 Jan 14:18:32 14:21:59 18° 270° (W) 14:25:26 437.125/150
AIST 1 22 Jan 14:21:40 14:25:59 59° 282° (WNW) 14:30:18
Cosmos 2504 22 Jan 14:22:30 14:30:37 48° 89° (E) 14:38:14 435.465 / 435.565
Cosmos 2491 22 Jan 14:22:50 14:30:59 45° 273° (W) 14:39:09 435.465 / 435.565
YUBILEINY 22 Jan 14:30:18 14:39:08 87° 97° (E) 14:48:03 435.215
AO-85 22 Jan 14:43:29 14:47:54 45° 313° (NW) 14:52:01 145.980
Gurwin Techsat 1B 22 Jan 14:50:23 14:53:51 17° 271° (W) 14:57:20 435.225
ITUPSAT 1 22 Jan 14:51:10 14:55:49 45° 99° (E) 15:00:26 437.325
DANDE 22 Jan 14:52:47 15:00:39 81° 78° (ENE) 15:09:03 436.750
O/OREOS (USA 219) 22 Jan 14:53:18 14:57:18 30° 55° (NE) 15:01:17 437.305
MOZHAYETS 4 22 Jan 15:00:40 15:04:07 20° 92° (E) 15:07:33
ITAMSAT 1 22 Jan 15:04:05 15:09:07 51° 260° (W) 15:14:10 435.822/435.867
TISAT 1 22 Jan 15:17:37 15:20:43 21° 296° (WNW) 15:23:49 437.305
BEESAT 22 Jan 15:24:13 15:29:03 87° 288° (WNW) 15:33:51 436.000
CUSAT 1 22 Jan 15:24:34 15:31:13 30° 276° (W) 15:37:28 437.405
SWISSCUBE 22 Jan 15:26:08 15:30:57 76° 286° (WNW) 15:35:44 437.505
KKS-1 22 Jan 15:26:11 15:27:07 11° 87° (E) 15:28:03 437.445
BEESAT 2 22 Jan 15:29:51 15:30:51 11° 109° (ESE) 15:31:52 435.950
HORYU 2 22 Jan 15:35:44 15:38:23 16° 59° (ENE) 15:41:01 437.375
GOMX 1 22 Jan 15:39:54 15:43:21 18° 61° (ENE) 15:46:43 467.674
BRITE-PL 22 Jan 15:45:18 15:50:39 44° 69° (ENE) 15:55:52 437.365/2234.400
SO-50 22 Jan 15:48:27 15:52:59 69° 50° (NE) 15:57:27 436.795
AO-7 22 Jan 15:51:09 15:59:00 44° 261° (W) 16:06:57 29.400- 29.500
CUBESAT XI-V 22 Jan 15:53:58 15:55:33 11° 86° (E) 15:57:06 437.345
AUBIESAT-1 22 Jan 15:56:59 15:58:10 11° 96° (E) 15:59:19 437.475
DOVE 4 22 Jan 16:08:50 16:10:54 13° 59° (ENE) 16:12:56 437.250
STARS 22 Jan 16:11:37 16:14:08 15° 90° (E) 16:16:37 437.465
BEESAT 3 22 Jan 16:14:15 16:18:07 68° 123° (ESE) 16:22:04 437.485
Cosmos 2504 22 Jan 16:16:05 16:24:05 42° 289° (WNW) 16:31:39 435.465 / 435.565
AO-85 22 Jan 16:27:47 16:29:19 12° 334° (NNW) 16:30:49 145.980
ITUPSAT 1 22 Jan 16:29:31 16:33:23 25° 297° (WNW) 16:37:16 437.325
YUBILEINY 22 Jan 16:30:20 16:37:11 24° 300° (WNW) 16:44:07 435.215
CUTE-I 22 Jan 16:31:46 16:35:58 25° 61° (ENE) 16:40:12 437.470
O/OREOS (USA 219) 22 Jan 16:32:39 16:36:43 34° 254° (WSW) 16:40:48 437.305
DANDE 22 Jan 16:36:31 16:42:44 26° 276° (W) 16:49:15 436.750
MOZHAYETS 4 22 Jan 16:37:03 16:41:33 50° 289° (WNW) 16:46:02
LilacSat-2 22 Jan 16:43:58 16:46:55 22° 66° (ENE) 16:49:54 437.200
M-CUBED/EXP-1 PRIME 22 Jan 16:54:56 16:58:19 79° 110° (ESE) 17:01:34 437.505
KKS-1 22 Jan 16:59:51 17:04:18 86° 284° (WNW) 17:08:43 437.445
HO-68 22 Jan 17:00:09 17:04:40 18° 48° (NE) 17:09:12 435.675
BEESAT 22 Jan 17:03:52 17:06:06 13° 304° (NW) 17:08:20 436.000
BEESAT 2 22 Jan 17:04:01 17:07:59 85° 305° (NW) 17:12:01 435.950
SWISSCUBE 22 Jan 17:06:15 17:07:54 12° 305° (NW) 17:09:34 437.505
HORYU 2 22 Jan 17:10:03 17:14:25 67° 257° (WSW) 17:18:51 437.375
Cubesat XI-IV 22 Jan 17:14:32 17:19:40 52° 69° (ENE) 17:24:50 437.490
NOAA 15 22 Jan 17:15:03 17:20:12 56° 70° (ENE) 17:25:25 137.62
GOMX 1 22 Jan 17:15:35 17:20:56 75° 258° (WSW) 17:26:01 467.674
CINEMA 3 22 Jan 17:20:20 17:22:30 14° 61° (ENE) 17:24:37 145.822/145.860
BRITE-PL 22 Jan 17:24:09 17:29:11 32° 266° (W) 17:34:09 437.365/2234.400
CUBESAT XI-V 22 Jan 17:28:51 17:33:35 87° 284° (WNW) 17:38:15 437.345
AUBIESAT-1 22 Jan 17:29:41 17:32:56 46° 294° (WNW) 17:36:06 437.475
SO-50 22 Jan 17:30:05 17:32:55 17° 249° (WSW) 17:35:45 436.795
NOAA 18 22 Jan 17:37:47 17:43:04 50° 68° (ENE) 17:48:21 137.9125
DOVE 4 22 Jan 17:43:03 17:47:59 88° 79° (ENE) 17:52:39 437.250
STARS 22 Jan 17:46:34 17:50:53 61° 287° (WNW) 17:55:11 437.465
BEESAT 3 22 Jan 17:53:17 17:56:09 19° 324° (NW) 17:59:04 437.485
CUTE 1.7 + AOD 2 22 Jan 17:58:44 18:01:43 19° 63° (ENE) 18:04:43 437.475
CUTE-I 22 Jan 18:10:29 18:15:41 54° 260° (W) 18:20:54 437.470
LilacSat-2 22 Jan 18:17:40 18:21:04 31° 264° (W) 18:24:30 437.200
CANX-2 22 Jan 18:27:17 18:31:15 39° 70° (ENE) 18:35:16 2200.000
Cosmos 2499 22 Jan 18:30:13 18:36:58 29° 83° (E) 18:43:20 435.465 / 435.565
SEEDS 22 Jan 18:33:40 18:37:17 28° 67° (ENE) 18:40:55 437.485
STRAND 1 22 Jan 18:34:46 18:38:01 17° 89° (E) 18:41:15 437.568
COMPASS 1 22 Jan 18:35:01 18:38:06 20° 64° (ENE) 18:41:12 437.405
KKS-1 22 Jan 18:38:36 18:40:09 12° 303° (WNW) 18:41:41 437.445
AAUSAT CUBESAT 2 22 Jan 18:43:53 18:46:54 19° 64° (ENE) 18:49:55 437.432
BEESAT 2 22 Jan 18:43:54 18:46:23 16° 327° (NNW) 18:48:55 435.950
HO-68 22 Jan 18:44:04 18:51:14 72° 69° (ENE) 18:58:25 435.675
CINEMA 3 22 Jan 18:54:48 18:59:09 71° 259° (WSW) 19:03:22 145.822/145.860
Cubesat XI-IV 22 Jan 18:55:49 19:00:03 24° 267° (W) 19:04:18 437.490
NOAA 15 22 Jan 18:56:14 19:00:20 22° 268° (W) 19:04:27 137.62
GOMX 1 22 Jan 18:58:50 18:59:44 10° 274° (W) 19:00:37 467.674
Oscar 11 22 Jan 19:07:03 19:09:33 15° 61° (ENE) 19:12:03 145.826/435.025
CUBESAT XI-V 22 Jan 19:08:12 19:10:13 13° 303° (WNW) 19:12:13 437.345
GONETS M04 22 Jan 19:18:35 19:26:46 48° 88° (E) 19:35:01
NOAA 18 22 Jan 19:19:25 19:23:58 26° 266° (W) 19:28:33 137.9125
AIST 2 22 Jan 19:23:07 19:27:11 60° 123° (ESE) 19:31:20 435.215
DOVE 4 22 Jan 19:24:29 19:26:13 12° 272° (W) 19:27:55 437.250
CUTE 1.7 + AOD 2 22 Jan 19:33:04 19:37:12 49° 261° (W) 19:41:23 437.475
CUBEBUG 2 22 Jan 19:33:07 19:37:15 72° 74° (ENE) 19:41:24 437.445
DELFI C3 22 Jan 19:41:22 19:42:30 11° 59° (ENE) 19:43:37 145.870
FUNcube-1 22 Jan 19:45:12 19:48:56 34° 69° (ENE) 19:52:45 145.935
AO-85 22 Jan 19:53:03 19:54:16 11° 25° (NNE) 19:55:27 145.980
UWE-3 22 Jan 19:56:17 20:00:24 81° 77° (ENE) 20:04:36 435.000/436.395/437.385
HUMSAT D 22 Jan 20:01:45 20:02:48 11° 58° (ENE) 20:03:51 437.325/437.525
CANX-2 22 Jan 20:03:56 20:07:15 22° 268° (W) 20:10:35 2200.000
SEEDS 22 Jan 20:09:09 20:12:54 31° 265° (W) 20:16:42 437.485
COMPASS 1 22 Jan 20:09:21 20:13:22 44° 262° (W) 20:17:25 437.405
ZACube-1 22 Jan 20:09:22 20:13:28 68° 74° (ENE) 20:17:38 437.345
STRAND 1 22 Jan 20:12:35 20:17:43 71° 288° (WNW) 20:22:51 437.568
AAUSAT CUBESAT 2 22 Jan 20:18:02 20:22:03 45° 261° (W) 20:26:07 437.432
Cosmos 2499 22 Jan 20:21:21 20:29:36 65° 283° (WNW) 20:37:15 435.465 / 435.565
HO-68 22 Jan 20:33:53 20:39:35 25° 269° (W) 20:45:19 435.675
Oscar 11 22 Jan 20:40:53 20:45:10 67° 258° (WSW) 20:49:31 145.826/435.025
AIST 2 22 Jan 21:02:43 21:06:01 22° 323° (NW) 21:09:22 435.215
ISS 22 Jan 21:03:13 21:05:15 16° 136° (SE) 21:07:17 145.825
UNISAT 6 22 Jan 21:11:42 21:12:57 11° 88° (E) 21:14:12 437.425
DELFI C3 22 Jan 21:12:39 21:16:40 84° 256° (WSW) 21:20:43 145.870
CUBEBUG 2 22 Jan 21:13:06 21:14:24 11° 272° (W) 21:15:42 437.445
GONETS M04 22 Jan 21:15:29 21:23:41 44° 290° (WNW) 21:32:00
FUNcube-1 22 Jan 21:21:59 21:25:17 23° 267° (W) 21:28:40 145.935
TIGRISAT 22 Jan 21:23:19 21:25:38 14° 89° (E) 21:27:56 435.000
BY70-1 22 Jan 21:23:29 21:25:20 15° 63° (ENE) 21:27:13 436.1900
AO-85 22 Jan 21:31:49 21:35:40 48° 48° (NE) 21:39:27 145.980
ESTCUBE 1 22 Jan 21:33:03 21:35:51 16° 60° (ENE) 21:38:41 437.505/2401.250
HUMSAT D 22 Jan 21:33:35 21:37:42 90° 66° (ENE) 21:41:55 437.325/437.525
PRISM 22 Jan 21:35:25 21:39:27 52° 100° (E) 21:43:26 437.425
ANTELSAT 22 Jan 21:38:23 21:41:45 21° 92° (E) 21:45:09 437.575/2403.000
ZACube-1 22 Jan 21:48:36 21:50:15 12° 272° (W) 21:51:55 437.345
STRAND 1 22 Jan 21:54:05 21:56:00 12° 307° (NW) 21:57:55 437.568
RS-15 22 Jan 21:56:01 22:05:04 27° 100° (E) 22:14:20 29.354- 29.394
CUBEBUG 1 22 Jan 22:12:15 22:15:39 22° 64° (ENE) 22:19:03 437.445
Cosmos 2499 22 Jan 22:20:10 22:24:19 15° 305° (NW) 22:28:22 435.465 / 435.565
50 SAT 22 Jan 22:25:02 22:26:11 11° 61° (ENE) 22:27:19 437.505
JAS-2 22 Jan 22:33:22 22:39:58 36° 94° (E) 22:46:57 435.910
AISAT 22 Jan 22:35:15 22:38:55 26° 65° (ENE) 22:42:35 437.250
ISS 22 Jan 22:38:04 22:41:19 88° 153° (SSE) 22:44:36 145.825
YUBILEINY 22 Jan 22:42:51 22:46:12 12° 47° (NE) 22:49:32 435.215
UNISAT 6 22 Jan 22:45:47 22:50:15 85° 284° (WNW) 22:54:48 437.425
NANOSAT C BR1 22 Jan 22:50:14 22:50:32 10° 87° (E) 22:50:49 145.865
BEESAT 3 22 Jan 22:51:38 22:54:24 18° 35° (NE) 22:57:11 437.485
BY70-1 22 Jan 22:52:20 22:55:15 37° 262° (W) 22:58:21 436.1900
TIGRISAT 22 Jan 22:58:20 23:02:45 69° 287° (WNW) 23:07:16 435.000
ESTCUBE 1 22 Jan 23:07:38 23:12:09 67° 258° (WSW) 23:16:42 437.505/2401.250
VELOX 1 22 Jan 23:07:43 23:12:00 49° 70° (ENE) 23:16:18 145.980
PRISM 22 Jan 23:11:41 23:14:22 17° 298° (WNW) 23:17:01 437.425
AO-85 22 Jan 23:12:58 23:15:43 18° 247° (WSW) 23:18:27 145.980
ANTELSAT 22 Jan 23:14:25 23:18:40 46° 290° (WNW) 23:22:59 437.575/2403.000
SPROUT 22 Jan 23:16:58 23:21:00 44° 70° (ENE) 23:25:03 437.525
GONETS M04 22 Jan 23:22:45 23:23:32 10° 317° (NW) 23:24:18
UKube-1 22 Jan 23:25:29 23:29:12 29° 66° (ENE) 23:32:56 .
DX 1 22 Jan 23:31:12 23:35:20 43° 69° (ENE) 23:39:29 434.975-435.025
QB50P1 22 Jan 23:41:10 23:45:07 38° 98° (E) 23:49:04 145.935-145.965
BEESAT 2 22 Jan 23:41:55 23:45:10 22° 39° (NE) 23:48:24 435.950
POLYITAN 1 22 Jan 23:46:07 23:50:11 43° 99° (E) 23:54:14 437.675
QB50P2 22 Jan 23:47:26 23:51:33 48° 99° (E) 23:55:40 145.880/145.840
CUBEBUG 1 22 Jan 23:47:30 23:51:41 42° 262° (W) 23:55:53 437.445
50 SAT 22 Jan 23:55:19 23:58:53 65° 258° (WSW) 00:02:28 437.505
RS-15 23 Jan 00:03:50 00:15:48 86° 124° (SE) 00:28:15 29.354- 29.394
PCSat 23 Jan 00:07:48 00:12:53 43° 114° (ESE) 00:18:00 145.827
POPSAT HIP 1 23 Jan 00:08:11 00:12:26 73° 103° (ESE) 00:16:39 437.405
AISAT 23 Jan 00:11:06 00:15:13 37° 262° (W) 00:19:22 437.250
Cosmos 2504 23 Jan 00:12:34 00:17:32 19° 58° (ENE) 00:22:22 435.465 / 435.565
ISS 23 Jan 00:15:01 00:18:03 35° 353° (N) 00:21:06 145.825
DUCHIFAT 1 23 Jan 00:15:36 00:19:49 76° 103° (ESE) 00:24:02 145.980
JAS-2 23 Jan 00:18:12 00:25:09 56° 292° (WNW) 00:32:40 435.910
NANOSAT C BR1 23 Jan 00:22:36 00:26:50 84° 284° (WNW) 00:31:03 145.865
UNISAT 6 23 Jan 00:24:45 00:26:16 12° 302° (WNW) 00:27:48 437.425
AIST 1 23 Jan 00:25:37 00:29:43 43° 76° (ENE) 00:33:46
ITUPSAT 1 23 Jan 00:26:50 00:28:16 11° 54° (NE) 00:29:42 437.325
BEESAT 3 23 Jan 00:28:30 00:32:32 80° 233° (SW) 00:36:31 437.485
TISAT 1 23 Jan 00:35:24 00:39:24 46° 71° (ENE) 00:43:24 437.305
YUBILEINY 23 Jan 00:37:05 00:45:39 51° 73° (ENE) 00:54:08 435.215
BUGSAT 1 23 Jan 00:39:20 00:43:16 49° 100° (E) 00:47:13 437.445
VELOX 1 23 Jan 00:45:34 00:48:43 19° 268° (W) 00:51:54 145.980
Oscar 19 23 Jan 00:46:34 00:50:11 19° 90° (E) 00:53:48 437.125/150
SPROUT 23 Jan 00:54:03 00:57:08 19° 268° (W) 01:00:14 437.525
BEESAT 23 Jan 00:57:10 01:00:40 21° 61° (ENE) 01:04:12 436.000
SWISSCUBE 23 Jan 00:58:48 01:02:33 24° 62° (ENE) 01:06:19 437.505
UKube-1 23 Jan 01:01:19 01:05:10 31° 264° (W) 01:09:03 .
DX 1 23 Jan 01:08:23 01:11:42 21° 267° (W) 01:15:02 434.975-435.025
QB50P1 23 Jan 01:17:22 01:20:41 23° 295° (WNW) 01:24:01 145.935-145.965
BEESAT 2 23 Jan 01:19:16 01:23:14 55° 239° (WSW) 01:27:12 435.950
Gurwin Techsat 1B 23 Jan 01:22:00 01:26:07 22° 92° (E) 01:30:12 435.225
POLYITAN 1 23 Jan 01:22:33 01:25:42 21° 296° (WNW) 01:28:52 437.675
QB50P2 23 Jan 01:24:02 01:27:02 19° 297° (WNW) 01:30:02 145.880/145.840
Cosmos 2491 23 Jan 01:30:39 01:38:50 48° 88° (E) 01:47:03 435.465 / 435.565
PHONESAT 2.4 23 Jan 01:43:30 01:44:28 12° 167° (SSE) 01:45:26 2401.200-2431.200
POPSAT HIP 1 23 Jan 01:45:34 01:47:40 14° 300° (WNW) 01:49:45 437.405
PCSat 23 Jan 01:51:22 01:56:22 37° 314° (NW) 02:01:24 145.827
ISS 23 Jan 01:51:52 01:54:59 41° 13° (NNE) 01:58:06 145.825
DUCHIFAT 1 23 Jan 01:53:00 01:54:56 13° 301° (WNW) 01:56:52 145.980
ITUPSAT 1 23 Jan 02:00:30 02:05:14 73° 74° (ENE) 02:10:02 437.325
AO-7 23 Jan 02:01:01 02:02:10 10° 82° (E) 02:03:18 29.400- 29.500
NANOSAT C BR1 23 Jan 02:01:07 02:01:51 10° 303° (WNW) 02:02:35 145.865
AIST 2 23 Jan 02:03:56 02:06:57 19° 34° (NE) 02:09:59 435.215
AIST 1 23 Jan 02:04:02 02:06:59 18° 274° (W) 02:09:54
Cosmos 2504 23 Jan 02:04:44 02:12:11 88° 79° (E) 02:19:21 435.465 / 435.565
MOZHAYETS 4 23 Jan 02:05:10 02:09:00 27° 65° (ENE) 02:12:52
JAS-2 23 Jan 02:05:28 02:08:53 14° 311° (NW) 02:12:24 435.910
M-CUBED/EXP-1 PRIME 23 Jan 02:09:58 02:12:56 19° 59° (ENE) 02:15:47 437.505
TISAT 1 23 Jan 02:12:24 02:15:16 18° 268° (W) 02:18:09 437.305
BUGSAT 1 23 Jan 02:15:38 02:18:17 17° 297° (WNW) 02:20:58 437.445
RS-15 23 Jan 02:18:26 02:29:51 43° 332° (NNW) 02:41:32 29.354- 29.394
Oscar 19 23 Jan 02:24:50 02:29:58 63° 289° (WNW) 02:35:02 437.125/150
KKS-1 23 Jan 02:26:03 02:28:45 16° 60° (ENE) 02:31:26 437.445
BEESAT 23 Jan 02:33:25 02:38:05 55° 259° (W) 02:42:47 436.000
YUBILEINY 23 Jan 02:34:15 02:42:16 41° 275° (W) 02:50:13 435.215
SWISSCUBE 23 Jan 02:35:28 02:40:03 47° 261° (W) 02:44:41 437.505
AUBIESAT-1 23 Jan 02:43:24 02:47:05 32° 63° (ENE) 02:50:32 437.475
CUSAT 1 23 Jan 02:45:41 02:51:04 51° 92° (E) 02:57:53 437.405
CUBESAT XI-V 23 Jan 02:59:19 03:02:25 18° 60° (ENE) 03:05:30 437.345
Gurwin Techsat 1B 23 Jan 03:01:12 03:06:24 56° 290° (WNW) 03:11:35 435.225
STARS 23 Jan 03:10:45 03:13:57 20° 62° (ENE) 03:17:10 437.465
ITAMSAT 1 23 Jan 03:13:44 03:18:44 44° 99° (E) 03:23:42 435.822/435.867
PHONESAT 2.4 23 Jan 03:16:18 03:17:49 16° 183° (S) 03:19:20 2401.200-2431.200
Cosmos 2491 23 Jan 03:27:35 03:35:46 44° 290° (WNW) 03:44:01 435.465 / 435.565
ISS 23 Jan 03:28:23 03:31:34 55° 212° (SSW) 03:34:45 145.825
PCSat 23 Jan 03:39:19 03:41:25 12° 338° (NNW) 03:43:32 145.827
ITUPSAT 1 23 Jan 03:41:03 03:43:37 14° 271° (W) 03:46:12 437.325
AIST 2 23 Jan 03:41:43 03:46:00 84° 232° (SW) 03:50:14 435.215
MOZHAYETS 4 23 Jan 03:41:47 03:46:01 37° 263° (W) 03:50:19
M-CUBED/EXP-1 PRIME 23 Jan 03:43:01 03:47:10 49° 254° (WSW) 03:51:03 437.505
AO-7 23 Jan 03:48:38 03:56:51 56° 103° (ESE) 04:04:59 29.400- 29.500
Cosmos 2504 23 Jan 03:59:53 04:04:25 18° 283° (WNW) 04:08:52 435.465 / 435.565
KKS-1 23 Jan 04:00:24 04:04:49 66° 257° (WSW) 04:09:15 437.445
DANDE 23 Jan 04:04:48 04:09:00 68° 96° (E) 04:14:45 436.750
Oscar 19 23 Jan 04:07:07 04:08:16 11° 308° (NW) 04:09:25 437.125/150
AUBIESAT-1 23 Jan 04:17:58 04:21:28 26° 258° (WSW) 04:24:49 437.475
Cosmos 2499 23 Jan 04:20:11 04:20:57 10° 49° (NE) 04:21:43 435.465 / 435.565
CUSAT 1 23 Jan 04:28:13 04:33:24 32° 297° (WNW) 04:39:43 437.405
CUBESAT XI-V 23 Jan 04:34:36 04:39:17 66° 259° (W) 04:44:01 437.345
RS-15 23 Jan 04:35:36 04:46:31 34° 6° (N) 04:57:21 29.354- 29.394
STARS 23 Jan 04:45:46 04:50:00 47° 260° (W) 04:54:15 437.465
ITAMSAT 1 23 Jan 04:53:35 04:58:00 29° 297° (WNW) 05:02:25 435.822/435.867
HORYU 2 23 Jan 04:58:42 05:01:51 19° 92° (E) 05:04:59 437.375
O/OREOS (USA 219) 23 Jan 05:09:41 05:12:45 18° 101° (E) 05:15:50 437.305
GOMX 1 23 Jan 05:15:30 05:19:04 24° 92° (E) 05:22:30 467.674
AIST 2 23 Jan 05:23:05 05:23:45 10° 252° (WSW) 05:24:24 435.215
GONETS M04 23 Jan 05:24:54 05:32:19 29° 62° (ENE) 05:39:42
BRITE-PL 23 Jan 05:25:56 05:30:50 79° 104° (ESE) 05:35:19 437.365/2234.400
NOAA 15 23 Jan 05:28:23 05:31:41 16° 89° (E) 05:34:58 137.62
Cubesat XI-IV 23 Jan 05:29:52 05:33:10 16° 89° (E) 05:36:27 437.490
DOVE 4 23 Jan 05:40:08 05:42:49 16° 90° (E) 05:45:28 437.250
AO-7 23 Jan 05:41:46 05:49:24 41° 303° (WNW) 05:56:59 29.400- 29.500
LilacSat-2 23 Jan 05:47:59 05:51:03 22° 93° (E) 05:54:06 437.200
DANDE 23 Jan 05:49:32 05:52:45 18° 305° (NW) 05:56:34 436.750
STRAND 1 23 Jan 05:53:01 05:57:30 32° 65° (ENE) 06:02:00 437.568
NOAA 18 23 Jan 05:58:02 06:01:17 16° 89° (E) 06:04:32 137.9125
SO-50 23 Jan 06:09:03 06:09:58 11° 107° (ESE) 06:10:54 436.795
Cosmos 2499 23 Jan 06:09:10 06:16:10 53° 74° (ENE) 06:23:02 435.465 / 435.565
CUTE-I 23 Jan 06:24:20 06:29:30 48° 99° (E) 06:34:39 437.470
HORYU 2 23 Jan 06:34:21 06:38:41 50° 290° (WNW) 06:42:59 437.375
CINEMA 3 23 Jan 06:46:44 06:49:52 20° 93° (E) 06:53:05 145.822/145.860
O/OREOS (USA 219) 23 Jan 06:47:24 06:51:46 52° 300° (WNW) 06:56:10 437.305
RS-15 23 Jan 06:50:18 07:02:28 56° 38° (NE) 07:14:18 29.354- 29.394
GOMX 1 23 Jan 06:53:17 06:57:19 35° 292° (WNW) 07:01:08 467.674
BRITE-PL 23 Jan 07:05:54 07:08:34 15° 303° (WNW) 07:11:10 437.365/2234.400
NOAA 15 23 Jan 07:06:43 07:12:03 75° 287° (WNW) 07:17:20 137.62
Cubesat XI-IV 23 Jan 07:08:28 07:13:50 76° 287° (WNW) 07:19:10 437.490
PCSat 23 Jan 07:09:50 07:13:26 17° 32° (NNE) 07:17:01 145.827
CUTE 1.7 + AOD 2 23 Jan 07:15:21 07:18:48 23° 93° (E) 07:22:14 437.475
DOVE 4 23 Jan 07:16:49 07:20:51 47° 288° (WNW) 07:24:50 437.250
GONETS M04 23 Jan 07:21:14 07:30:04 75° 265° (W) 07:38:52
LilacSat-2 23 Jan 07:21:54 07:25:23 32° 291° (WNW) 07:28:52 437.200
CUBEBUG 2 23 Jan 07:22:15 07:24:10 13° 89° (E) 07:26:06 437.445
STRAND 1 23 Jan 07:31:55 07:36:36 37° 263° (W) 07:41:20 437.568
AO-7 23 Jan 07:36:53 07:39:55 12° 327° (NNW) 07:42:57 29.400- 29.500
NOAA 18 23 Jan 07:37:06 07:42:35 80° 288° (WNW) 07:48:02 137.9125
UWE-3 23 Jan 07:43:58 07:46:15 14° 89° (E) 07:48:34 435.000/436.395/437.385
CANX-2 23 Jan 07:44:43 07:48:57 53° 100° (E) 07:53:09 2200.000
SO-50 23 Jan 07:44:57 07:49:39 76° 124° (SE) 07:54:18 436.795
COMPASS 1 23 Jan 07:49:24 07:52:49 24° 93° (E) 07:56:12 437.405
SEEDS 23 Jan 07:49:32 07:53:28 35° 96° (E) 07:57:22 437.485
HO-68 23 Jan 07:56:08 08:03:14 58° 102° (ESE) 08:10:15 435.675
ZACube-1 23 Jan 07:56:35 07:57:59 11° 87° (E) 07:59:23 437.345
AAUSAT CUBESAT 2 23 Jan 07:57:36 08:00:55 22° 93° (E) 08:04:11 437.432
Cosmos 2499 23 Jan 08:02:54 08:08:54 31° 276° (W) 08:14:53 435.465 / 435.565
CUTE-I 23 Jan 08:04:51 08:09:19 28° 298° (WNW) 08:13:46 437.470
UNISAT 6 23 Jan 08:13:09 08:15:25 14° 60° (ENE) 08:17:42 437.425
CINEMA 3 23 Jan 08:23:15 08:27:12 41° 290° (WNW) 08:31:15 145.822/145.860
TIGRISAT 23 Jan 08:24:57 08:27:42 17° 62° (ENE) 08:30:28 435.000
Oscar 11 23 Jan 08:25:54 08:29:00 19° 91° (E) 08:32:05 145.826/435.025
PRISM 23 Jan 08:27:03 08:31:07 55° 72° (ENE) 08:35:13 437.425
ANTELSAT 23 Jan 08:40:08 08:43:36 25° 65° (ENE) 08:47:04 437.575/2403.000
NOAA 15 23 Jan 08:48:30 08:50:56 13° 307° (NW) 08:53:22 137.62
DELFI C3 23 Jan 08:49:56 08:50:21 10° 87° (E) 08:50:46 145.870
Cubesat XI-IV 23 Jan 08:50:32 08:53:02 13° 306° (NW) 08:55:32 437.490
CUTE 1.7 + AOD 2 23 Jan 08:50:46 08:54:45 37° 291° (WNW) 08:58:42 437.475
JAS-2 23 Jan 08:51:15 08:55:02 19° 53° (NE) 08:59:05 435.910
PCSat 23 Jan 08:52:28 08:57:54 66° 54° (NE) 09:03:18 145.827
CUBEBUG 2 23 Jan 08:56:55 09:01:16 74° 285° (WNW) 09:05:44 437.445
RS-15 23 Jan 09:03:21 09:15:20 60° 245° (WSW) 09:26:53 29.354- 29.394
FUNcube-1 23 Jan 09:05:29 09:09:48 51° 100° (E) 09:14:10 145.935
HUMSAT D 23 Jan 09:15:38 09:17:29 12° 88° (E) 09:19:20 437.325/437.525
UWE-3 23 Jan 09:18:46 09:23:08 68° 286° (WNW) 09:27:36 435.000/436.395/437.385
NOAA 18 23 Jan 09:19:31 09:22:24 15° 307° (NW) 09:25:18 137.9125
GONETS M04 23 Jan 09:20:18 09:25:18 17° 287° (WNW) 09:30:17
CANX-2 23 Jan 09:21:30 09:24:25 18° 297° (WNW) 09:27:19 2200.000
COMPASS 1 23 Jan 09:24:36 09:28:27 35° 291° (WNW) 09:32:16 437.405
SEEDS 23 Jan 09:25:31 09:29:01 25° 294° (WNW) 09:32:28 437.485
SO-50 23 Jan 09:26:56 09:30:37 22° 325° (NW) 09:34:16 436.795
ZACube-1 23 Jan 09:30:24 09:34:48 83° 287° (WNW) 09:39:18 437.345
AAUSAT CUBESAT 2 23 Jan 09:32:38 09:36:29 37° 291° (WNW) 09:40:19 437.432
HO-68 23 Jan 09:44:21 09:50:38 34° 302° (WNW) 09:56:51 435.675
NANOSAT C BR1 23 Jan 09:44:24 09:46:08 12° 59° (ENE) 09:47:53 145.865
UNISAT 6 23 Jan 09:47:22 09:51:36 69° 257° (WSW) 09:55:53 437.425
TIGRISAT 23 Jan 09:59:50 10:03:59 55° 260° (W) 10:08:11 435.000
Oscar 11 23 Jan 10:01:11 10:05:23 48° 289° (WNW) 10:09:35 145.826/435.025
PRISM 23 Jan 10:04:18 10:06:45 15° 269° (W) 10:09:13 437.425
ANTELSAT 23 Jan 10:16:16 10:20:09 35° 263° (W) 10:24:06 437.575/2403.000
DELFI C3 23 Jan 10:21:40 10:25:41 76° 285° (WNW) 10:29:38 145.870
JAS-2 23 Jan 10:33:46 10:39:13 83° 255° (WSW) 10:45:23 435.910
QB50P1 23 Jan 10:36:07 10:40:02 41° 70° (ENE) 10:44:00 145.935-145.965
PCSat 23 Jan 10:36:46 10:40:48 22° 253° (WSW) 10:44:50 145.827
POLYITAN 1 23 Jan 10:41:14 10:45:13 46° 71° (ENE) 10:49:16 437.675
QB50P2 23 Jan 10:42:31 10:46:35 51° 72° (ENE) 10:50:41 145.880/145.840
FUNcube-1 23 Jan 10:42:34 10:45:42 19° 297° (WNW) 10:48:52 145.935
HUMSAT D 23 Jan 10:49:16 10:53:34 71° 286° (WNW) 10:57:51 437.325/437.525
ESTCUBE 1 23 Jan 10:57:49 11:01:17 21° 92° (E) 11:04:42 437.505/2401.250
POPSAT HIP 1 23 Jan 11:03:04 11:07:16 78° 74° (ENE) 11:11:28 437.405
ZACube-1 23 Jan 11:09:10 11:10:24 11° 302° (WNW) 11:11:37 437.345
DUCHIFAT 1 23 Jan 11:09:49 11:13:59 80° 74° (ENE) 11:18:09 145.980
NANOSAT C BR1 23 Jan 11:17:05 11:21:16 79° 257° (WSW) 11:25:28 145.865
RS-15 23 Jan 11:19:30 11:24:54 14° 268° (W) 11:30:14 29.354- 29.394
BY70-1 23 Jan 11:23:36 11:26:51 72° 102° (ESE) 11:29:52 436.1900
BUGSAT 1 23 Jan 11:31:32 11:35:27 50° 71° (ENE) 11:39:21 437.445
CUBEBUG 1 23 Jan 11:33:10 11:36:53 27° 95° (E) 11:40:34 437.445
CUSAT 1 23 Jan 11:35:06 11:39:01 14° 49° (NE) 11:42:52 437.405
Cosmos 2491 23 Jan 11:37:04 11:44:26 29° 63° (ENE) 11:51:46 435.465 / 435.565
AISAT 23 Jan 11:58:00 12:01:57 32° 96° (E) 12:05:52 437.250
Oscar 19 23 Jan 12:05:44 12:10:30 38° 66° (ENE) 12:15:16 437.125/150
QB50P1 23 Jan 12:12:52 12:15:59 20° 267° (W) 12:19:08 145.935-145.965
POLYITAN 1 23 Jan 12:18:25 12:21:17 18° 268° (W) 12:24:09 437.675
QB50P2 23 Jan 12:20:02 12:22:42 16° 269° (W) 12:25:22 145.880/145.840
JAS-2 23 Jan 12:23:19 12:25:33 12° 278° (W) 12:27:51 435.910
VELOX 1 23 Jan 12:30:56 12:35:20 66° 103° (ESE) 12:39:40 145.980
ESTCUBE 1 23 Jan 12:33:57 12:38:18 45° 290° (WNW) 12:42:36 437.505/2401.250
SPROUT 23 Jan 12:35:16 12:39:29 57° 101° (E) 12:43:41 437.525
POPSAT HIP 1 23 Jan 12:42:31 12:43:35 11° 272° (W) 12:44:39 437.405
UKube-1 23 Jan 12:44:58 12:48:53 33° 97° (E) 12:52:45 .
Gurwin Techsat 1B 23 Jan 12:45:36 12:50:39 46° 68° (ENE) 12:55:43 435.225
DUCHIFAT 1 23 Jan 12:49:27 12:50:13 10° 272° (W) 12:50:59 145.980
50 SAT 23 Jan 12:51:02 12:54:36 87° 283° (WNW) 12:58:08 437.505
DX 1 23 Jan 12:52:13 12:56:29 53° 101° (E) 13:00:42 434.975-435.025
DANDE 23 Jan 12:55:42 13:01:12 20° 58° (ENE) 13:06:59 436.750
Cosmos 2504 23 Jan 12:57:16 13:01:23 15° 74° (ENE) 13:05:24 435.465 / 435.565
ITAMSAT 1 23 Jan 12:58:05 13:00:58 15° 55° (NE) 13:03:51 435.822/435.867
AIST 1 23 Jan 12:58:24 13:01:48 22° 88° (E) 13:05:11
AO-7 23 Jan 13:00:28 13:07:01 27° 49° (NE) 13:13:35 29.400- 29.500
BUGSAT 1 23 Jan 13:08:39 13:11:06 16° 269° (W) 13:13:34 437.445
CUBEBUG 1 23 Jan 13:09:19 13:13:11 32° 293° (WNW) 13:17:01 437.445
CUSAT 1 23 Jan 13:15:08 13:22:58 53° 71° (ENE) 13:30:08 437.405
AO-85 23 Jan 13:28:13 13:32:49 59° 123° (ESE) 13:37:05 145.980
AISAT 23 Jan 13:34:35 13:38:21 29° 294° (WNW) 13:42:06 437.250
O/OREOS (USA 219) 23 Jan 13:38:20 13:39:08 10° 41° (NE) 13:39:57 437.305
